Weather History for Auburn-Lewiston, ME

Change the Weather History Date:

Sunday, February 24, 2013

  Actual Average Record
Temperature  
Mean Temperature 29 °F -  
Max Temperature 30 °F 32 °F 39 °F (2012)
Min Temperature 28 °F 15 °F -4 °F (2005)
Degree Days  
Heating Degree Days 36    
Moisture  
Dew Point 27 °F    
Average Humidity 92    
Maximum Humidity 93    
Minimum Humidity 86    
Precipitation  
Precipitation 0.00 in - - ()
Sea Level Pressure  
Sea Level Pressure 29.86 in    
Wind  
Wind Speed 7 mph (NNE)    
Max Wind Speed 13 mph    
Max Gust Speed 18 mph    
Visibility 2 miles    
Events      
Averages and records for this station are not official NWS values.
T = Trace of Precipitation, MM = Missing Value Source: NWS Daily Summary

Daily Weather History Graph

Daily Weather History Graph

Search for Another Location

Airport:

Trip Planner

Search our weather history database for the weather conditions in past years. The results will help you decide how hot, cold, wet, or windy it might be!

Date:

Astronomy

Feb. 24, 2013 Rise Set
Actual Time 6:26 AM EST 5:23 PM EST
Civil Twilight 5:56 AM EST 5:52 PM EST
Nautical Twilight 5:23 AM EST 6:25 PM EST
Astronomical Twilight 4:50 AM EST 6:59 PM EST
Moon 4:30 PM EST (2/24) 5:22 AM EST (2/24)
Length of Visible Light 11h 55m
Length of Day
10h 57m
Waxing Gibbous, 99% of the Moon is Illuminated
Feb 24
Waxing Gibbous
Feb 25
Full
Mar 4
Last Quarter
Mar 11
New
Mar 19
First Quarter

Hourly Weather History & Observations

Time (EST) Temp. Windchill Dew Point Humidity Pressure Visibility Wind Dir Wind Speed Gust Speed Precip Events Conditions
12:15 AM 30.2 °F 26.7 °F 28.4 °F 93% 30.00 in 2.5 mi ENE 3.5 mph - N/A   Overcast
12:35 AM 30.2 °F 26.7 °F 28.4 °F 93% 29.99 in 3.0 mi ENE 3.5 mph - N/A   Overcast
12:55 AM 30.2 °F 24.3 °F 28.4 °F 93% 29.98 in 4.0 mi NE 5.8 mph - N/A   Overcast
1:15 AM 30.2 °F 25.4 °F 28.4 °F 93% 29.98 in 5.0 mi NE 4.6 mph - N/A   Mostly Cloudy
1:35 AM 30.2 °F 25.4 °F 28.4 °F 93% 29.97 in 7.0 mi NNE 4.6 mph - N/A   Overcast
1:55 AM 30.2 °F 24.3 °F 28.4 °F 93% 29.96 in 4.0 mi NE 5.8 mph - N/A   Overcast
2:15 AM 30.2 °F 24.3 °F 28.4 °F 93% 29.96 in 5.0 mi NE 5.8 mph - N/A   Overcast
2:35 AM 30.2 °F 23.4 °F 28.4 °F 93% 29.94 in 7.0 mi NE 6.9 mph - N/A   Overcast
2:55 AM 30.2 °F 23.4 °F 28.4 °F 93% 29.94 in 7.0 mi NE 6.9 mph - N/A   Overcast
3:35 AM 30.2 °F 24.3 °F 28.4 °F 93% 29.91 in 1.5 mi NE 5.8 mph - N/A   Overcast
3:55 AM 30.2 °F 22.6 °F 28.4 °F 93% 29.91 in 2.5 mi NE 8.1 mph - N/A   Overcast
4:15 AM 30.2 °F 23.4 °F 26.6 °F 86% 29.90 in 3.0 mi NE 6.9 mph - N/A   Overcast
4:35 AM 30.2 °F 22.6 °F 28.4 °F 93% 29.90 in 3.0 mi NE 8.1 mph - N/A   Overcast
4:55 AM 30.2 °F 24.3 °F 28.4 °F 93% 29.90 in 5.0 mi NE 5.8 mph - N/A   Overcast
5:15 AM 30.2 °F 23.4 °F 26.6 °F 86% 29.90 in 4.0 mi NNE 6.9 mph - N/A   Overcast
5:35 AM 30.2 °F 24.3 °F 26.6 °F 86% 29.90 in 2.5 mi NNE 5.8 mph - N/A   Overcast
5:55 AM 30.2 °F 24.3 °F 26.6 °F 86% 29.90 in 2.0 mi NNE 5.8 mph - N/A   Overcast
6:15 AM 30.2 °F 23.4 °F 26.6 °F 86% 29.90 in 2.5 mi NNE 6.9 mph - N/A   Overcast
6:35 AM 28.4 °F 22.2 °F 26.6 °F 93% 29.90 in 1.0 mi NNE 5.8 mph - N/A   Overcast
6:55 AM 28.4 °F 21.2 °F 26.6 °F 93% 29.90 in 1.0 mi NNE 6.9 mph - N/A   Overcast
7:15 AM 28.4 °F 19.7 °F 26.6 °F 93% 29.89 in 1.5 mi NNE 9.2 mph - N/A   Overcast
7:35 AM 28.4 °F 19.7 °F 26.6 °F 93% 29.89 in 1.5 mi NNE 9.2 mph - N/A   Overcast
7:55 AM 28.4 °F 19.7 °F 26.6 °F 93% 29.89 in 1.5 mi NNE 9.2 mph - N/A   Overcast
8:15 AM 28.4 °F 20.4 °F 26.6 °F 93% 29.87 in 1.0 mi NNE 8.1 mph - N/A   Overcast
8:35 AM 28.4 °F 21.2 °F 26.6 °F 93% 29.87 in 1.0 mi NNE 6.9 mph - N/A   Overcast
8:56 AM 28.4 °F 20.4 °F 26.6 °F 93% 29.87 in 1.5 mi NNE 8.1 mph - N/A   Overcast
9:15 AM 28.4 °F 21.2 °F 26.6 °F 93% 29.86 in 1.2 mi NNE 6.9 mph - N/A   Overcast
9:35 AM 28.4 °F 19.7 °F 26.6 °F 93% 29.86 in 1.0 mi NNE 9.2 mph - N/A   Overcast
9:55 AM 28.4 °F 19.7 °F 26.6 °F 93% 29.85 in 2.0 mi NNE 9.2 mph - N/A   Overcast
10:15 AM 28.4 °F 19.7 °F 26.6 °F 93% 29.84 in 1.5 mi NNE 9.2 mph - N/A   Overcast
10:35 AM 28.4 °F 18.5 °F 26.6 °F 93% 29.83 in 0.5 mi NNE 11.5 mph - N/A   Overcast
10:55 AM 28.4 °F 19.1 °F 26.6 °F 93% 29.83 in 0.8 mi NNE 10.4 mph - N/A   Overcast
11:15 AM 28.4 °F 18.5 °F 26.6 °F 93% 29.82 in 0.5 mi NNE 11.5 mph - N/A   Overcast
11:35 AM 28.4 °F 19.1 °F 26.6 °F 93% 29.82 in 0.5 mi NNE 10.4 mph - N/A   Overcast
12:15 PM 28.4 °F 19.1 °F 26.6 °F 93% 29.81 in 0.5 mi North 10.4 mph 16.1 mph N/A   Overcast
12:35 PM 28.4 °F 18.5 °F 26.6 °F 93% 29.80 in 0.5 mi North 11.5 mph - N/A   Overcast
12:55 PM 28.4 °F 18.5 °F 26.6 °F 93% 29.80 in 0.5 mi NNE 11.5 mph - N/A   Overcast
1:15 PM 28.4 °F 19.1 °F 26.6 °F 93% 29.80 in 0.5 mi North 10.4 mph - N/A   Overcast
1:35 PM 28.4 °F 18.5 °F 26.6 °F 93% 29.80 in 0.8 mi NNE 11.5 mph - N/A   Overcast
1:55 PM 28.4 °F 19.1 °F 26.6 °F 93% 29.79 in 0.8 mi NNE 10.4 mph - N/A   Overcast
2:15 PM 28.4 °F 18.0 °F 26.6 °F 93% 29.78 in 0.5 mi North 12.7 mph - N/A   Overcast
2:35 PM 28.4 °F 18.5 °F 26.6 °F 93% 29.78 in 0.8 mi NNE 11.5 mph - N/A   Overcast
2:55 PM 28.4 °F 18.5 °F 26.6 °F 93% 29.79 in 1.0 mi NNE 11.5 mph - N/A   Overcast
3:15 PM 28.4 °F 18.0 °F 26.6 °F 93% 29.78 in 0.8 mi NNE 12.7 mph - N/A   Overcast
3:35 PM 28.4 °F 18.0 °F 26.6 °F 93% 29.78 in 1.2 mi NNE 12.7 mph 18.4 mph N/A   Overcast
3:55 PM 28.4 °F 18.5 °F 26.6 °F 93% 29.78 in 1.5 mi NNE 11.5 mph 18.4 mph N/A   Overcast
4:15 PM 28.4 °F 18.5 °F 26.6 °F 93% 29.78 in 2.0 mi NNE 11.5 mph - N/A   Overcast
4:35 PM 28.4 °F 19.1 °F 26.6 °F 93% 29.78 in 1.5 mi NNE 10.4 mph - N/A   Overcast
4:55 PM 28.4 °F 19.1 °F 26.6 °F 93% 29.78 in 1.8 mi North 10.4 mph - N/A   Overcast
5:15 PM 28.4 °F 19.1 °F 26.6 °F 93% 29.79 in 1.8 mi North 10.4 mph - N/A   Overcast
5:35 PM 28.4 °F 21.2 °F 24.8 °F 86% 29.80 in 1.5 mi North 6.9 mph - N/A   Overcast
5:55 PM 28.4 °F 20.4 °F 26.6 °F 93% 29.80 in 2.0 mi North 8.1 mph - N/A   Overcast
6:15 PM 28.4 °F 21.2 °F 26.6 °F 93% 29.81 in 1.8 mi North 6.9 mph - N/A   Overcast
6:35 PM 28.4 °F 19.7 °F 26.6 °F 93% 29.82 in 1.8 mi North 9.2 mph - N/A   Overcast
6:55 PM 28.4 °F 19.7 °F 26.6 °F 93% 29.83 in 2.0 mi North 9.2 mph - N/A   Overcast
7:15 PM 28.4 °F 20.4 °F 26.6 °F 93% 29.83 in 1.8 mi North 8.1 mph - N/A   Overcast
7:35 PM 28.4 °F 20.4 °F 26.6 °F 93% 29.84 in 2.0 mi North 8.1 mph - N/A   Overcast
7:55 PM 28.4 °F 21.2 °F 26.6 °F 93% 29.85 in 3.0 mi North 6.9 mph - N/A   Overcast
8:15 PM 28.4 °F 21.2 °F 26.6 °F 93% 29.85 in 2.5 mi North 6.9 mph - N/A   Overcast
8:35 PM 28.4 °F 21.2 °F 26.6 °F 93% 29.86 in 2.0 mi North 6.9 mph - N/A   Overcast
8:55 PM 28.4 °F 20.4 °F 26.6 °F 93% 29.86 in 2.0 mi North 8.1 mph - N/A   Overcast
9:15 PM 28.4 °F 21.2 °F 26.6 °F 93% 29.86 in 2.5 mi North 6.9 mph - N/A   Overcast
9:35 PM 28.4 °F 19.7 °F 26.6 °F 93% 29.86 in 2.5 mi North 9.2 mph - N/A   Overcast
9:55 PM 28.4 °F 20.4 °F 24.8 °F 86% 29.86 in 4.0 mi North 8.1 mph - N/A   Overcast
10:15 PM 28.4 °F 20.4 °F 26.6 °F 93% 29.87 in 4.0 mi North 8.1 mph - N/A   Overcast
10:35 PM 28.4 °F 22.2 °F 26.6 °F 93% 29.87 in 10.0 mi North 5.8 mph - N/A   Overcast
10:55 PM 28.4 °F 21.2 °F 26.6 °F 93% 29.88 in 6.0 mi North 6.9 mph - N/A   Overcast
11:15 PM 28.4 °F 19.7 °F 24.8 °F 86% 29.88 in 5.0 mi North 9.2 mph - N/A   Overcast
11:35 PM 28.4 °F 19.7 °F 24.8 °F 86% 29.88 in 5.0 mi North 9.2 mph - N/A   Overcast
11:55 PM 28.4 °F 19.1 °F 24.8 °F 86% 29.89 in 4.0 mi North 10.4 mph - N/A   Overcast